Wetbulb
58.26 58.27 58.44 58.40 58.23 58.90 58.86 58.90 59.18 59.15 59.21 58.90 58.90 58.93 58.86 58.73 58.94 58.56 58.59 58.26 57.71 58.05 58.08 58.36 58.75 59.81 57.63 54.49 56.37 67.27 69.94 68.32 64.10 61.37 60.48 59.54 57.31 60.07 60.96 62.29 61.61 58.99 60.40 65.10 63.59 64.27 62.78
58.22 58.22 58.20 58.41 58.75 58.91 58.59 58.77 58.76 58.92 58.78 58.66 58.65 58.71 58.75 58.56 57.58 58.13 58.40 58.46 58.09 57.69 57.59 58.39 58.93 59.77 55.32 52.20 63.08 64.14 59.41 62.23 62.35 59.82 57.78 58.16 60.79 66.25 64.62 63.04 60.78 61.85 61.66 64.36 64.10 63.48 63.09
57.94 58.08 58.05 58.06 57.67 57.74 57.96 58.55 58.39 58.47 58.31 58.33 58.30 57.93 57.08 56.80 56.84 57.75 57.70 57.56 56.99 56.92 57.88 58.85 59.27 59.73 56.91 57.77 62.53 60.91 57.44 57.37 59.17 59.42 55.43 57.43 65.09 65.41 65.31 60.32 62.78 61.54 60.71 62.71 63.28 62.20 61.85
58.53 58.37 58.17 57.97 57.59 57.40 57.28 57.10 57.24 57.53 58.21 58.01 57.74 56.72 56.54 56.50 56.94 57.21 57.07 56.68 56.31 57.36 59.42 60.15 59.36 58.10 55.14 61.94 61.27 58.68 57.89 55.90 56.25 55.87 55.95 58.22 66.27 64.28 62.54 63.21 62.41 60.72 60.75 54.74 60.70 62.88 60.63
58.98 58.64 58.50 57.99 57.53 57.28 56.76 56.81 56.81 56.61 56.46 56.40 56.22 56.03 56.07 56.88 56.92 56.69 56.01 55.79 56.84 59.00 61.25 59.76 56.56 55.28 55.59 62.93 57.76 60.22 57.97 55.08 53.97 54.36 55.65 60.92 61.21 59.12 61.06 56.87 55.84 57.66 52.45 55.34 57.67 62.33 61.85
58.82 58.69 58.41 58.04 57.84 57.24 57.17 56.82 56.64 56.53 56.29 55.94 55.80 55.55 55.93 56.73 56.47 55.82 55.06 55.12 58.70 57.72 60.55 61.34 61.45 55.04 60.24 55.78 57.51 60.29 57.52 57.29 54.06 53.00 53.65 52.98 55.84 54.11 54.79 53.35 48.51 52.07 53.13 55.62 53.93 59.22 61.20
58.76 58.41 58.26 58.28 58.14 57.43 57.28 57.19 56.86 56.64 56.35 55.80 55.46 55.04 54.95 55.68 55.86 55.14 54.73 56.51 55.72 54.35 56.80 56.26 56.79 57.79 57.24 56.35 58.09 57.34 55.72 54.13 53.55 50.14 45.86 51.26 49.87 49.23 53.49 54.37 58.39 56.98 55.30 52.25 54.22 57.61 58.31
59.14 58.48 58.27 58.18 57.73 57.39 57.06 57.08 57.15 56.66 56.42 56.50 56.17 55.69 54.61 54.12 54.47 54.69 52.76 55.46 57.47 56.82 52.06 60.64 58.31 55.44 56.88 56.95 54.08 56.65 55.37 49.42 48.58 45.01 48.27 47.84 47.21 54.17 58.20 56.99 56.32 56.56 54.99 53.87 55.47 57.83 58.99
59.42 58.93 58.67 58.51 58.20 57.51 57.06 56.89 56.69 56.43 56.24 56.63 56.51 55.90 54.65 53.76 53.30 51.77 55.03 59.11 61.91 58.43 51.26 55.99 56.66 56.09 54.78 55.20 54.06 53.54 53.65 51.91 49.06 46.78 47.24 47.13 51.83 56.52 55.66 55.16 54.10 51.55 54.61 55.70 55.49 58.45 60.62
59.81 59.24 58.80 58.46 58.14 58.00 57.08 56.96 57.04 56.84 56.65 56.52 56.33 55.84 54.63 52.70 53.89 57.95 56.61 61.04 60.62 59.76 47.09 52.02 51.74 55.07 56.28 56.54 51.86 57.47 56.50 54.46 52.37 47.43 48.32 46.99 51.52 52.44 54.19 53.44 51.75 47.48 58.18 58.01 56.16 54.51 48.62
59.68 58.44 57.98 57.69 57.54 57.39 57.50 57.23 57.09 56.90 56.52 56.39 56.15 55.20 53.56 52.19 52.10 53.63 58.67 60.35 59.61 57.21 39.36 53.63 52.40 57.83 55.03 51.59 53.14 53.42 57.08 54.13 50.55 50.64 47.70 47.06 49.42 51.33 51.63 52.02 53.96 49.28 57.65 55.39 56.89 53.29 51.98
58.79 58.20 58.31 57.98 57.96 57.76 57.32 57.06 56.85 56.75 56.41 56.01 55.50 54.35 52.83 52.44 53.61 56.33 58.02 58.88 57.98 46.38 42.41 50.72 53.78 52.23 51.40 52.76 53.33 53.84 53.37 53.90 54.23 51.52 50.55 49.71 53.66 52.42 52.02 54.05 53.35 53.40 51.12 51.75 52.16 49.11 42.92
58.80 58.70 58.74 58.27 57.84 57.34 56.75 56.73 56.75 56.47 56.03 55.32 54.10 52.90 51.42 56.91 55.69 58.85 57.89 57.34 46.39 42.36 54.85 50.21 49.87 51.58 51.51 50.89 51.56 51.51 50.62 47.74 46.07 41.12 43.30 48.89 49.97 51.39 52.80 48.68 51.36 50.08 43.66 38.18 38.28 39.81 42.78
59.63 58.87 58.63 58.16 57.58 57.17 56.67 56.55 56.47 56.09 55.58 54.43 52.74 51.67 53.80 57.32 58.12 57.19 56.91 51.41 43.42 51.74 50.74 52.23 50.94 49.74 49.27 51.08 50.71 51.61 49.56 47.04 50.73 47.85 43.92 43.77 43.41 48.60 51.40 47.61 44.96 44.92 44.07 41.35 35.91 38.25 42.73
59.80 59.16 58.82 58.14 57.47 57.21 56.87 56.43 55.80 55.76 55.10 53.74 52.03 57.34 57.70 59.56 60.00 59.10 52.46 45.20 47.45 52.28 52.24 50.59 49.89 47.12 48.29 50.81 50.15 49.56 49.01 48.12 50.20 48.19 42.79 43.50 46.31 52.60 52.50 50.88 49.29 45.22 42.44 52.09 46.11 45.40 40.79
59.76 59.64 59.16 58.45 57.84 57.32 56.83 56.15 55.64 55.60 54.79 53.65 53.87 56.59 58.00 61.44 60.53 56.73 50.63 45.53 50.61 55.18 53.06 50.93 46.16 50.12 48.33 49.74 48.07 47.67 49.09 50.92 50.92 52.86 49.59 46.18 42.02 50.43 54.50 54.34 55.94 52.45 52.80 43.29 46.34 39.56 36.87
60.00 59.60 59.43 59.03 57.88 57.43 56.90 56.25 55.44 55.22 54.02 53.20 55.04 54.57 60.94 63.70 61.49 54.92 47.94 49.49 52.70 56.06 54.45 50.59 49.03 48.69 49.13 48.98 49.68 48.00 50.58 52.47 53.46 52.31 51.19 49.47 44.98 45.84 50.14 49.96 48.64 49.17 46.17 46.20 45.70 45.72 41.22
59.70 59.45 59.31 59.17 57.95 57.13 56.82 56.27 55.04 54.09 52.90 55.39 55.80 50.83 61.32 62.09 53.10 52.99 49.66 52.19 51.62 53.96 54.10 51.76 51.50 50.85 49.82 51.29 49.45 49.16 50.55 52.55 54.84 52.57 48.06 49.62 45.02 41.65 49.01 53.38 54.66 52.74 47.44 45.51 40.57 43.03 45.44
59.33 59.39 59.43 59.29 58.03 57.40 56.98 55.95 54.59 53.66 53.21 52.33 52.41 53.69 58.79 59.52 49.99 50.96 52.78 52.78 54.07 53.57 52.14 51.51 50.01 51.51 51.43 48.61 47.05 50.66 53.52 54.77 55.01 52.47 47.97 49.47 44.04 39.08 41.51 45.18 50.43 46.68 47.96 45.74 45.30 45.33 43.83
59.25 59.35 59.39 59.33 58.19 57.46 56.90 55.79 54.71 54.01 53.72 53.63 53.29 49.54 54.11 55.78 56.60 53.21 51.90 51.96 51.74 56.50 53.10 53.58 53.15 53.10 50.51 48.20 48.67 49.16 50.91 54.24 54.22 53.45 59.69 53.34 43.47 41.97 37.57 44.18 49.57 45.80 49.24 51.38 47.70 41.03 43.18
58.97 59.01 59.23 59.20 58.04 57.51 56.88 56.25 55.12 54.35 53.91 53.63 54.75 52.55 54.43 49.35 51.23 51.95 53.36 53.90 51.50 50.99 55.85 53.36 52.00 51.72 50.08 45.77 47.53 47.92 50.28 50.97 53.15 58.62 52.13 48.19 41.15 43.74 46.27 49.25 50.40 49.49 49.23 50.72 48.04 47.12 43.21
58.27 58.53 58.74 58.43 57.94 57.44 56.83 56.66 55.60 54.75 53.61 54.65 53.46 53.26 54.87 52.05 52.40 51.37 50.25 51.43 53.15 52.92 53.43 52.11 50.77 52.07 51.00 47.41 48.29 46.96 49.40 48.66 47.58 50.32 48.33 49.62 43.23 45.78 45.61 50.12 49.17 48.64 51.04 51.51 50.82 50.49 51.01
58.07 57.95 57.69 57.53 57.33 57.07 56.97 56.54 56.02 55.34 53.50 56.78 58.35 58.82 55.30 50.38 50.80 49.39 49.44 50.84 51.20 53.13 55.86 56.35 54.64 53.06 51.35 52.84 54.16 51.65 50.24 48.67 47.01 45.24 46.99 47.00 45.43 43.88 40.10 47.97 47.33 44.77 48.70 50.12 51.28 52.50 51.37
57.21 57.17 56.89 56.58 56.70 57.07 56.99 56.72 56.37 56.72 55.12 54.80 56.35 56.51 52.76 48.68 50.64 50.37 51.84 52.47 52.29 53.75 53.07 55.37 55.94 53.95 56.27 56.07 54.43 51.51 48.59 47.94 49.17 48.19 46.43 45.27 43.55 43.27 39.62 42.51 36.11 45.22 52.80 51.90 52.66 53.66 53.42
56.55 56.40 56.03 56.19 56.33 56.83 57.11 57.01 56.89 57.32 56.95 54.51 56.14 55.66 53.91 48.94 51.74 51.72 51.79 51.77 52.96 54.45 55.09 55.16 56.45 56.99 57.29 54.50 48.72 47.09 44.71 45.64 48.26 49.59 46.92 46.34 45.82 40.35 38.03 37.49 42.84 47.16 52.10 50.96 50.87 51.61 57.39
55.83 55.87 55.81 55.96 56.32 56.58 57.17 57.27 57.28 57.54 56.85 54.49 55.70 58.11 56.46 51.15 49.79 53.93 51.60 52.33 49.73 52.63 54.30 56.33 58.65 57.68 55.52 50.63 48.14 43.28 41.17 45.56 45.74 48.15 48.24 47.48 47.30 42.57 39.65 37.01 35.90 47.28 53.36 55.41 52.42 46.55 57.40
55.08 55.44 55.92 56.07 56.23 56.58 56.91 57.16 57.38 58.31 56.72 54.39 55.02 57.58 56.60 51.38 53.63 53.84 51.46 51.09 53.73 51.85 51.85 54.67 54.51 54.50 55.49 49.03 45.08 43.82 44.18 49.66 44.67 45.42 43.33 44.88 44.23 41.84 41.53 38.74 43.11 52.57 54.84 55.05 41.77 47.27 55.87
54.12 54.95 55.50 55.72 55.73 56.57 56.98 57.11 57.62 57.43 56.73 54.84 54.95 58.58 56.62 52.75 53.89 55.60 55.72 52.62 53.12 52.42 49.88 53.85 53.24 52.84 50.99 47.16 46.12 45.67 46.00 46.95 46.88 48.77 46.38 44.43 42.38 41.77 42.88 40.14 40.11 55.70 54.37 49.69 52.48 52.97 58.25
53.63 54.77 55.26 55.14 55.46 55.89 56.92 57.24 57.06 56.71 56.34 55.85 52.79 58.83 58.58 54.66 53.79 57.11 56.60 57.43 56.25 55.83 52.38 54.45 53.98 53.66 54.31 50.84 49.63 49.02 47.00 48.12 47.11 42.26 50.17 43.16 46.34 42.60 44.88 44.35 53.09 54.97 52.74 54.12 54.42 53.73 55.52
MSLP
1020.86 1020.59 1020.20 1019.84 1019.51 1019.15 1018.79 1018.38 1017.96 1017.54 1017.16 1016.82 1016.46 1016.08 1015.69 1015.37 1014.98 1014.59 1014.29 1014.04 1013.90 1013.69 1013.53 1013.32 1013.10 1012.85 1012.37 1011.24 1008.17 1006.73 1006.96 1007.12 1007.18 1007.28 1006.98 1006.46 1006.11 1005.91 1007.31 1009.02 1010.50 1010.77 1011.05 1010.53 1010.62 1011.11 1010.42
1021.16 1020.83 1020.46 1020.09 1019.68 1019.30 1018.91 1018.52 1018.07 1017.62 1017.21 1016.81 1016.42 1015.98 1015.57 1015.18 1014.81 1014.38 1014.02 1013.78 1013.63 1013.48 1013.31 1013.11 1012.96 1012.84 1012.15 1009.34 1006.05 1006.34 1006.62 1006.92 1006.87 1006.75 1006.14 1005.85 1005.49 1005.05 1006.56 1008.60 1009.67 1010.21 1010.84 1010.14 1010.74 1010.76 1010.96
1021.45 1021.09 1020.69 1020.32 1019.91 1019.52 1019.10 1018.63 1018.17 1017.76 1017.30 1016.81 1016.34 1015.86 1015.46 1015.00 1014.60 1014.13 1013.78 1013.53 1013.31 1013.14 1013.00 1012.84 1012.76 1012.45 1010.83 1007.61 1005.57 1005.90 1006.20 1006.29 1006.02 1005.99 1005.66 1005.00 1004.78 1004.90 1006.14 1008.16 1007.87 1008.51 1009.83 1009.89 1010.57 1011.05 1010.75
1021.68 1021.31 1020.93 1020.50 1020.06 1019.65 1019.20 1018.75 1018.23 1017.75 1017.29 1016.83 1016.29 1015.82 1015.30 1014.78 1014.31 1013.86 1013.42 1013.17 1012.88 1012.70 1012.57 1012.49 1012.59 1011.99 1009.31 1005.62 1005.52 1005.57 1005.62 1005.72 1005.50 1005.08 1005.11 1004.72 1004.32 1004.74 1005.45 1006.86 1008.20 1010.13 1010.32 1010.21 1010.61 1010.95 1011.41
1021.91 1021.52 1021.13 1020.69 1020.27 1019.80 1019.39 1018.88 1018.32 1017.81 1017.28 1016.76 1016.25 1015.72 1015.18 1014.62 1014.11 1013.61 1013.09 1012.70 1012.31 1012.20 1012.20 1012.35 1012.38 1011.44 1007.73 1005.69 1005.67 1005.20 1004.99 1005.09 1005.10 1005.14 1004.91 1004.68 1004.88 1005.17 1005.53 1006.77 1008.20 1009.70 1009.84 1010.33 1010.73 1010.81 1011.19
1022.15 1021.77 1021.38 1020.96 1020.47 1019.96 1019.49 1018.97 1018.41 1017.83 1017.22 1016.70 1016.13 1015.60 1015.01 1014.47 1013.96 1013.45 1012.60 1012.22 1011.78 1011.81 1011.85 1011.71 1010.93 1010.26 1006.94 1005.21 1004.91 1004.85 1004.76 1004.85 1004.98 1005.10 1005.09 1005.05 1005.20 1005.26 1005.40 1006.37 1007.47 1008.77 1009.93 1011.09 1011.55 1011.27 1011.44
1022.44 1022.05 1021.64 1021.19 1020.68 1020.11 1019.55 1018.98 1018.40 1017.81 1017.23 1016.66 1016.03 1015.40 1014.83 1014.32 1013.86 1013.49 1012.35 1011.47 1011.82 1011.15 1010.48 1008.83 1007.49 1006.44 1004.98 1004.92 1004.74 1004.85 1004.80 1004.81 1004.85 1005.13 1005.36 1005.12 1005.46 1005.09 1004.69 1004.87 1005.71 1007.13 1009.18 1010.67 1011.33 1011.60 1012.00
1022.75 1022.34 1021.85 1021.35 1020.78 1020.22 1019.64 1019.02 1018.44 1017.84 1017.25 1016.51 1015.76 1015.14 1014.56 1014.07 1013.75 1013.53 1013.42 1011.50 1008.35 1007.34 1007.34 1006.45 1005.50 1004.76 1004.41 1004.44 1004.53 1004.49 1004.60 1005.05 1004.96 1005.22 1005.17 1005.40 1004.86 1004.19 1004.02 1004.02 1004.63 1005.58 1008.10 1009.99 1011.24 1010.28 1011.12
1022.90 1022.44 1021.97 1021.50 1020.99 1020.39 1019.83 1019.20 1018.53 1017.83 1017.09 1016.31 1015.54 1014.92 1014.31 1013.59 1012.96 1013.11 1011.64 1009.47 1006.98 1006.30 1006.51 1004.91 1004.22 1003.99 1003.85 1004.04 1003.90 1004.16 1004.50 1004.38 1004.68 1004.86 1004.79 1004.66 1003.92 1003.37 1003.15 1003.49 1004.03 1004.73 1006.41 1008.31 1009.08 1010.23 1010.51
1022.88 1022.40 1021.97 1021.53 1021.04 1020.52 1019.91 1019.21 1018.39 1017.55 1016.76 1016.05 1015.37 1014.80 1014.18 1013.29 1012.73 1010.90 1009.41 1007.22 1006.49 1006.26 1006.18 1004.27 1003.46 1003.08 1003.27 1003.32 1003.57 1003.62 1004.04 1004.44 1004.26 1004.18 1004.07 1003.84 1003.10 1002.77 1002.58 1003.18 1003.58 1004.34 1005.24 1006.47 1007.90 1009.35 1010.42
1023.09 1022.63 1022.16 1021.65 1021.08 1020.46 1019.71 1018.97 1018.21 1017.42 1016.61 1015.84 1015.19 1014.56 1014.20 1014.23 1013.15 1010.94 1008.05 1006.92 1006.31 1006.24 1005.56 1003.11 1002.73 1002.57 1002.41 1003.08 1003.44 1003.70 1003.72 1003.81 1003.97 1003.83 1003.68 1003.50 1002.94 1002.61 1002.64 1003.04 1003.20 1003.85 1004.35 1005.45 1006.98 1008.69 1009.81
1023.27 1022.83 1022.32 1021.74 1021.11 1020.36 1019.63 1018.88 1018.13 1017.29 1016.41 1015.54 1014.76 1014.36 1013.97 1013.48 1012.81 1009.50 1008.28 1007.32 1006.59 1006.56 1004.10 1002.52 1002.37 1002.55 1002.76 1002.74 1002.94 1003.45 1003.78 1004.06 1003.87 1003.87 1003.45 1003.29 1002.73 1002.54 1002.54 1002.63 1002.95 1003.50 1004.44 1005.50 1006.58 1008.30 1010.12
1023.38 1022.88 1022.25 1021.68 1021.09 1020.43 1019.64 1018.79 1017.95 1017.07 1016.17 1015.18 1014.11 1013.72 1013.92 1012.23 1010.22 1008.34 1008.01 1007.49 1007.24 1005.74 1002.78 1002.33 1002.08 1002.01 1002.17 1002.49 1002.81 1003.19 1003.67 1003.94 1004.12 1004.18 1004.08 1003.24 1002.73 1002.48 1002.59 1003.07 1003.22 1003.92 1005.26 1006.75 1008.04 1009.21 1011.18
1023.37 1022.86 1022.31 1021.79 1021.19 1020.48 1019.67 1018.81 1017.91 1016.93 1015.83 1014.66 1013.18 1012.40 1011.46 1010.40 1009.19 1008.77 1008.56 1008.33 1007.04 1004.37 1002.58 1002.03 1002.13 1002.11 1002.12 1002.19 1002.50 1002.76 1003.25 1003.49 1003.47 1003.57 1003.79 1003.64 1002.74 1002.32 1002.60 1003.16 1003.76 1004.50 1005.55 1007.34 1009.49 1011.01 1011.75
1023.25 1022.80 1022.31 1021.77 1021.20 1020.47 1019.71 1018.84 1017.94 1016.93 1015.67 1014.33 1012.43 1010.77 1010.20 1008.47 1008.72 1009.14 1009.37 1008.34 1005.98 1003.83 1002.43 1002.11 1002.21 1002.44 1002.17 1002.14 1002.71 1002.75 1002.83 1002.79 1002.73 1003.33 1004.12 1003.85 1002.98 1002.49 1002.39 1002.83 1003.76 1004.81 1006.05 1007.48 1009.79 1011.19 1012.15
1023.19 1022.74 1022.26 1021.74 1021.17 1020.56 1019.87 1019.02 1018.10 1017.03 1015.69 1014.14 1013.34 1010.79 1008.24 1006.96 1007.37 1008.35 1008.82 1007.81 1005.82 1003.85 1002.73 1002.56 1002.60 1002.14 1002.05 1002.22 1002.70 1002.70 1002.45 1002.42 1002.84 1003.24 1003.78 1004.33 1004.41 1003.36 1003.03 1003.29 1004.54 1005.82 1007.31 1008.32 1010.35 1012.01 1013.01
1023.15 1022.66 1022.18 1021.72 1021.21 1020.67 1020.00 1019.28 1018.46 1017.32 1015.73 1013.66 1013.10 1010.09 1006.05 1005.78 1006.63 1007.75 1007.87 1006.82 1005.26 1003.53 1002.64 1003.01 1002.85 1002.69 1002.35 1002.39 1002.40 1002.52 1002.53 1002.72 1002.89 1003.54 1003.94 1004.57 1004.99 1004.75 1004.00 1005.23 1006.29 1006.98 1008.21 1009.57 1010.99 1012.29 1013.19
1022.96 1022.55 1022.06 1021.54 1021.16 1020.78 1020.20 1019.51 1018.75 1017.93 1016.31 1014.25 1013.25 1010.07 1005.57 1005.47 1006.94 1007.12 1006.97 1005.99 1004.88 1003.66 1002.66 1002.98 1003.06 1002.90 1002.73 1002.68 1002.71 1002.86 1002.81 1002.91 1003.41 1003.94 1005.04 1005.69 1005.85 1006.29 1006.92 1006.83 1007.44 1008.14 1009.27 1009.97 1011.33 1012.32 1012.87
1022.81 1022.39 1021.95 1021.49 1021.13 1020.77 1020.26 1019.78 1019.17 1018.55 1018.09 1017.49 1014.63 1010.50 1006.38 1005.91 1006.52 1006.87 1006.37 1005.35 1004.58 1003.57 1002.81 1002.72 1002.97 1002.85 1002.82 1003.09 1003.45 1003.22 1003.14 1003.40 1003.71 1004.41 1005.61 1006.14 1006.86 1007.35 1007.60 1007.47 1007.53 1008.18 1008.76 1009.46 1010.47 1011.35 1012.33
1022.51 1022.20 1021.77 1021.37 1021.04 1020.71 1020.34 1019.87 1019.37 1018.87 1018.52 1017.88 1015.37 1011.26 1007.71 1006.74 1006.61 1006.70 1006.40 1005.47 1004.56 1003.12 1002.39 1002.36 1002.48 1002.58 1003.01 1003.40 1003.64 1003.76 1003.57 1003.62 1003.97 1004.73 1005.53 1006.13 1007.19 1007.92 1007.94 1007.59 1007.49 1008.09 1008.04 1008.45 1009.50 1010.64 1011.48
1022.39 1021.95 1021.54 1021.21 1020.94 1020.66 1020.25 1019.83 1019.35 1018.70 1018.29 1018.29 1015.31 1011.81 1010.76 1009.10 1008.27 1008.08 1007.19 1006.03 1004.60 1003.75 1002.78 1002.30 1002.53 1002.81 1003.20 1003.78 1003.83 1003.91 1003.76 1003.70 1003.94 1004.63 1005.49 1006.33 1007.35 1007.64 1007.36 1006.78 1006.68 1006.68 1006.80 1007.44 1008.69 1009.41 1010.14
1022.10 1021.78 1021.43 1021.17 1020.83 1020.57 1020.28 1019.82 1019.39 1018.77 1017.85 1017.19 1015.20 1013.39 1012.15 1010.88 1009.68 1008.69 1007.56 1006.21 1005.05 1003.79 1003.28 1002.60 1002.54 1002.72 1002.99 1003.43 1003.64 1003.78 1004.00 1004.32 1004.70 1005.53 1005.65 1006.14 1007.20 1007.73 1007.45 1006.68 1006.33 1006.02 1005.80 1006.08 1007.03 1008.41 1009.48
1021.96 1021.68 1021.40 1021.09 1020.80 1020.47 1020.16 1019.76 1019.42 1018.85 1018.28 1016.95 1015.33 1014.26 1013.33 1011.75 1010.68 1009.59 1008.10 1006.78 1005.60 1004.51 1003.29 1003.03 1002.12 1003.18 1002.63 1002.99 1003.13 1003.52 1003.89 1004.46 1005.01 1005.51 1006.06 1006.65 1007.55 1008.35 1008.20 1007.33 1006.70 1005.83 1004.85 1005.03 1006.22 1007.85 1008.78
1021.82 1021.61 1021.36 1021.06 1020.67 1020.40 1020.10 1019.65 1019.39 1019.20 1019.16 1018.73 1017.14 1015.99 1014.35 1012.51 1011.54 1010.01 1008.65 1007.44 1006.40 1005.47 1004.55 1003.30 1002.96 1002.75 1002.46 1002.50 1003.17 1003.62 1004.10 1004.65 1005.11 1005.62 1005.86 1006.71 1007.74 1008.49 1009.00 1008.39 1007.58 1005.66 1004.59 1004.36 1005.68 1007.43 1008.43
1021.56 1021.35 1021.13 1020.90 1020.57 1020.24 1020.03 1019.59 1019.26 1019.13 1019.23 1018.94 1017.78 1016.43 1014.80 1013.19 1012.06 1010.57 1009.31 1008.45 1007.54 1006.44 1005.24 1004.11 1003.17 1003.02 1002.24 1002.91 1004.01 1004.70 1005.16 1005.44 1005.47 1005.47 1005.84 1006.56 1007.65 1008.69 1009.08 1008.80 1007.60 1005.73 1005.14 1005.02 1006.01 1008.27 1008.37
1021.41 1021.17 1020.91 1020.63 1020.32 1020.02 1019.64 1019.26 1019.01 1018.88 1018.86 1018.85 1017.44 1016.26 1015.42 1014.07 1011.55 1011.00 1010.54 1009.71 1008.77 1007.34 1006.02 1004.78 1003.78 1002.90 1002.76 1003.95 1004.90 1005.64 1006.00 1005.97 1005.93 1005.99 1005.84 1006.67 1007.40 1008.70 1009.24 1009.14 1007.94 1006.51 1005.34 1005.43 1005.63 1008.27 1009.47
1021.26 1020.97 1020.75 1020.41 1020.12 1019.74 1019.45 1019.13 1018.80 1018.67 1018.58 1018.70 1017.23 1016.34 1015.53 1014.28 1011.89 1011.53 1010.89 1010.25 1009.65 1008.70 1007.75 1006.39 1005.75 1004.63 1004.15 1004.71 1005.62 1006.21 1006.40 1006.56 1006.79 1006.89 1007.10 1007.46 1008.21 1008.79 1009.08 1008.89 1007.61 1006.95 1006.13 1005.99 1006.98 1009.29 1009.50
1021.12 1020.86 1020.61 1020.31 1019.84 1019.39 1019.26 1018.93 1018.61 1018.53 1018.50 1018.41 1016.80 1015.76 1015.58 1014.41 1012.19 1011.53 1011.15 1010.64 1009.94 1009.18 1008.83 1007.80 1006.60 1006.14 1005.64 1005.56 1006.27 1006.57 1006.79 1007.35 1007.80 1007.70 1007.79 1007.98 1008.45 1008.69 1008.60 1008.37 1007.75 1006.87 1006.65 1007.17 1008.25 1008.60 1009.40
1020.94 1020.67 1020.36 1020.03 1019.72 1019.34 1019.08 1018.80 1018.52 1018.43 1018.37 1018.38 1017.05 1015.44 1015.25 1014.62 1012.38 1011.10 1010.47 1009.89 1009.83 1009.42 1009.22 1008.50 1007.78 1007.00 1007.23 1007.00 1006.57 1006.81 1007.29 1007.82 1008.25 1008.64 1007.88 1008.32 1007.90 1008.29 1008.22 1007.60 1007.06 1006.84 1006.97 1007.23 1007.61 1008.32 1009.04
Wind_Speed
17 16 17 16 16 15 15 15 14 14 14 15 15 14 14 15 15 15 14 13 14 13 12 11 10 10 5 3 8 5 7 5 4 3 7 12 11 6 6 10 9 10 6 13 12 8 11
17 17 17 17 16 16 16 15 16 15 15 15 15 15 15 15 16 16 15 13 13 13 12 10 8 8 3 5 8 9 8 7 8 8 10 13 6 2 10 13 3 3 4 8 13 11 12
18 18 18 18 18 18 17 16 17 16 17 17 16 17 18 18 17 16 15 13 14 14 11 9 6 5 5 11 6 10 9 9 10 12 11 12 7 1 9 5 11 5 2 6 7 6 3
18 19 19 19 19 19 19 19 19 19 18 17 18 19 18 18 17 17 15 14 15 12 10 5 3 5 8 2 5 6 10 10 11 7 7 10 9 6 2 11 6 8 7 4 4 2 3
18 19 19 20 19 19 19 19 20 20 20 20 21 21 19 17 16 16 16 16 16 9 5 3 3 3 8 2 4 10 8 7 8 7 8 8 6 4 2 6 4 1 5 4 1 4 5
20 19 20 20 20 20 19 20 20 21 21 22 22 21 19 16 15 15 19 11 4 12 5 7 8 6 8 7 5 6 1 5 4 6 4 5 3 4 5 4 6 5 5 6 5 5 4
19 20 20 18 18 20 21 21 22 22 22 22 22 22 20 17 14 12 11 1 1 1 5 10 6 6 6 6 3 5 5 6 4 4 6 8 3 7 12 3 7 12 15 12 6 13 7
16 20 20 19 21 21 22 23 20 23 21 21 21 21 22 20 16 9 4 4 8 7 7 17 11 3 6 10 7 7 6 4 5 7 8 4 9 13 10 5 6 9 21 9 4 12 10
13 14 15 17 18 22 23 23 23 24 24 22 21 20 21 21 20 3 6 10 13 5 3 9 11 7 4 5 7 9 7 7 8 7 10 9 11 13 12 5 6 7 16 12 10 14 2
16 16 17 17 18 19 23 23 21 20 22 22 21 20 19 26 4 6 8 15 6 6 3 7 5 5 6 8 2 10 8 9 7 8 11 7 10 13 6 2 4 5 11 13 12 10 4
17 20 20 21 22 22 19 20 22 22 24 23 21 20 16 7 8 5 10 14 8 4 4 14 5 5 2 4 10 5 4 5 9 9 2 12 6 5 4 7 7 7 7 8 12 9 6
18 20 20 22 19 20 21 21 22 23 24 25 24 19 17 4 4 10 15 17 5 1 6 5 8 8 9 10 7 5 5 4 9 9 7 8 10 3 1 8 2 8 8 7 4 5 2
18 17 19 18 19 20 22 22 23 25 26 27 27 19 7 6 6 10 14 5 3 4 2 7 7 9 12 7 8 8 9 7 5 2 6 8 11 4 2 7 7 3 2 5 6 3 1
13 17 17 18 20 21 22 23 24 26 28 29 31 20 12 7 6 8 8 4 5 11 6 5 4 5 6 6 5 7 6 7 10 6 4 6 6 9 7 6 7 5 5 4 1 2 3
14 15 16 16 19 21 22 23 24 26 29 30 29 1 4 6 12 5 2 3 5 10 10 5 7 6 8 7 2 4 8 6 6 5 5 6 8 2 7 5 6 6 6 8 7 2 1
15 15 15 15 17 19 22 23 24 27 31 29 6 5 7 9 11 5 2 9 10 13 6 6 8 5 4 8 7 6 6 4 4 8 5 6 6 9 5 5 10 9 3 8 5 2 4
15 15 16 15 16 19 20 23 24 26 31 31 4 4 9 10 8 2 6 9 16 22 5 4 9 10 4 4 3 6 3 5 4 5 6 4 1 9 1 7 6 7 4 5 4 4 3
15 15 15 15 14 17 19 20 20 22 30 9 6 4 3 8 3 4 9 15 15 23 7 2 6 7 7 6 6 2 3 7 8 7 4 6 3 4 16 12 8 4 2 4 5 3 3
15 15 15 14 14 15 17 19 18 15 15 7 6 5 7 5 7 7 12 21 21 13 5 8 7 7 6 5 4 5 2 8 7 5 3 4 5 6 3 2 2 2 3 5 4 2 6
16 15 15 13 13 14 16 17 18 15 10 4 4 5 4 3 5 9 12 15 18 15 9 8 3 1 4 3 6 5 7 2 9 8 8 6 3 6 6 4 5 3 6 6 6 2 5
14 14 14 12 12 13 15 16 16 16 14 3 4 4 8 6 10 15 16 15 17 16 13 8 3 5 3 5 6 6 8 7 6 12 5 6 3 6 10 8 6 8 9 11 7 6 7
13 13 12 10 12 13 15 15 15 18 21 3 4 5 9 11 10 12 12 13 16 16 13 7 7 8 9 5 5 6 3 5 4 5 4 2 3 4 6 9 7 6 13 14 12 4 2
11 10 11 11 12 13 13 14 13 14 12 4 5 5 4 7 9 10 10 16 19 19 15 16 6 12 8 1 2 5 7 5 5 4 4 3 3 6 6 8 9 6 3 1 8 9 6
10 10 11 12 13 13 14 12 12 11 7 4 4 6 3 7 9 11 18 19 17 17 10 15 16 5 3 9 7 3 2 4 6 10 2 3 1 1 4 8 5 10 7 2 13 7 4
10 10 12 13 13 13 14 13 11 9 6 4 5 4 3 7 10 14 16 16 17 15 13 11 14 11 4 6 4 1 2 4 7 6 6 3 3 2 4 4 9 11 8 6 10 9 8
11 11 12 13 14 14 14 11 10 10 7 5 8 7 6 6 8 11 15 13 13 8 8 7 12 9 3 3 4 5 4 7 3 2 1 2 2 6 1 2 4 1 8 7 4 5 9
12 12 13 13 13 13 14 12 11 10 5 4 6 9 4 6 12 11 10 7 9 6 5 4 8 9 9 2 2 3 4 3 2 3 2 3 1 5 4 4 4 6 7 5 4 4 10
13 13 12 12 12 13 13 11 9 7 7 4 8 8 5 5 15 17 17 12 7 3 3 8 6 3 5 2 3 2 1 2 3 3 3 6 5 3 1 3 3 4 7 6 4 3 11
13 13 12 12 12 12 12 8 6 7 6 4 5 7 7 5 9 20 22 21 20 14 4 3 5 2 1 4 2 1 3 3 4 4 4 3 2 3 4 5 5 5 6 5 5 4 7
Wind_Direction
21 16 13 9 5 1 358 353 349 346 344 340 335 332 329 326 320 316 313 310 311 311 313 312 313 319 308 231 249 137 154 158 198 212 245 258 275 274 149 118 90 142 275 177 154 93 348
19 15 12 7 4 4 360 354 351 348 344 341 337 331 328 325 321 314 312 311 311 310 309 307 305 309 249 272 122 136 186 158 244 207 245 252 269 316 62 104 166 229 295 109 80 136 183
21 17 13 7 3 3 359 354 352 348 344 340 337 335 331 325 321 316 314 310 308 307 304 296 286 270 267 256 120 157 191 202 228 228 260 293 298 113 132 168 192 209 240 127 110 113 141
20 17 13 8 5 2 359 355 351 347 344 341 340 337 333 328 322 317 309 305 303 300 296 268 255 268 258 153 328 190 197 230 238 273 273 292 337 331 357 102 87 30 249 78 139 154 218
19 17 13 10 5 3 358 355 352 347 345 344 342 339 334 327 321 315 309 304 292 286 284 166 210 246 271 93 243 243 212 219 205 251 274 294 338 269 191 155 40 326 119 106 346 145 138
18 16 12 9 5 4 358 354 351 349 347 344 340 337 332 325 321 318 307 276 306 306 211 202 260 297 255 232 190 203 181 297 228 236 252 258 263 235 272 204 180 181 131 61 31 9 207
16 13 9 5 3 1 1 358 353 350 346 343 341 337 333 328 325 327 334 327 319 267 235 217 220 237 122 66 54 264 174 244 249 249 233 225 226 241 251 79 169 159 113 123 135 263 283
21 17 13 9 4 0 359 358 352 350 345 335 333 335 333 327 322 321 298 254 279 277 305 233 245 156 151 188 182 196 179 239 186 235 234 268 228 249 276 197 226 183 139 130 183 228 231
353 354 359 0 360 3 359 356 352 348 342 334 331 331 333 325 317 246 218 253 286 322 293 273 217 185 179 224 221 166 186 224 239 242 249 223 254 242 246 294 313 266 157 168 162 206 65
355 350 352 355 356 356 357 352 346 339 335 335 332 330 330 323 331 317 270 251 259 338 311 224 211 157 199 212 130 157 206 239 271 241 243 224 276 288 97 299 261 314 131 160 144 159 195
0 2 1 358 355 351 339 339 339 336 334 334 331 327 324 337 305 301 279 314 319 3 289 170 139 140 146 246 145 200 196 297 269 292 318 251 241 242 317 292 300 251 175 188 165 187 128
3 2 0 357 346 343 341 337 337 336 333 329 325 325 327 131 218 249 294 295 334 275 246 136 146 187 215 230 138 137 187 232 260 288 287 252 285 351 272 294 341 360 347 331 242 141 228
358 353 350 346 346 345 341 339 337 335 333 327 320 316 294 303 248 329 317 318 306 218 246 156 185 189 211 187 151 172 188 211 223 209 266 261 237 201 176 325 322 221 305 307 329 358 203
343 348 340 344 345 344 342 340 338 335 333 329 320 312 206 222 260 289 312 321 250 260 237 94 23 334 283 147 182 197 194 219 227 244 274 260 249 203 163 185 242 302 207 137 18 282 321
330 329 336 340 342 340 341 340 338 337 334 331 315 190 222 225 212 240 297 269 256 307 12 9 161 245 263 145 140 185 230 268 138 78 39 352 356 237 152 167 157 272 353 139 110 130 282
323 326 329 331 334 339 341 341 341 339 336 330 315 276 248 224 175 191 208 245 275 289 15 3 309 289 318 152 182 208 210 112 46 76 53 304 346 302 73 20 48 94 333 24 20 62 307
320 322 322 324 332 336 340 341 342 342 338 322 271 276 245 203 163 160 236 252 275 276 123 306 311 321 316 313 335 340 270 125 107 75 37 335 116 293 325 37 37 12 39 70 161 100 129
318 320 320 322 330 335 338 341 343 346 341 6 315 293 327 138 172 220 240 255 269 283 112 248 300 308 312 355 2 198 353 79 51 49 23 9 269 358 84 78 69 100 129 127 117 184 119
316 317 316 317 324 334 336 338 339 347 16 317 313 269 281 274 216 241 259 266 269 270 255 179 220 220 285 2 359 313 338 134 122 72 78 19 339 338 186 109 76 313 168 178 192 205 195
317 316 315 313 319 330 335 337 335 336 351 318 292 301 301 289 237 245 269 284 297 294 215 270 286 343 43 0 295 290 311 130 121 124 154 110 219 212 233 207 158 221 214 192 157 183 140
312 314 316 315 320 330 335 333 333 331 333 293 242 290 4 314 336 328 314 313 275 290 286 211 175 263 225 238 266 253 224 254 186 136 160 150 224 276 278 289 174 206 205 202 181 211 157
311 314 317 323 320 328 331 331 334 332 334 215 293 344 352 298 304 316 311 300 300 274 277 230 191 217 217 234 249 279 28 44 83 249 202 243 249 307 275 291 354 305 235 182 206 97 5
318 322 323 324 324 323 327 327 333 342 342 311 355 336 322 290 302 298 286 295 304 311 306 319 207 271 224 259 197 97 76 33 334 337 308 63 54 20 299 342 333 310 326 190 162 176 137
320 319 323 322 322 321 320 320 327 340 14 313 291 302 283 290 306 300 309 308 314 327 308 315 301 294 185 109 83 57 2 286 247 262 237 152 209 151 285 345 309 251 239 174 63 162 145
312 317 320 318 319 320 315 314 318 323 319 289 297 287 299 294 306 301 311 333 329 319 327 277 286 292 107 100 79 122 277 276 276 263 195 231 163 200 154 250 276 317 29 62 94 54 89
314 316 317 317 319 316 316 316 321 318 318 293 282 276 269 285 253 311 317 297 294 331 343 330 345 320 157 125 108 177 214 224 178 29 311 205 149 123 336 292 278 135 69 50 14 83 136
317 322 319 318 314 318 314 320 318 307 315 302 282 301 288 283 272 274 306 331 317 327 289 318 339 348 316 106 151 183 218 99 110 204 164 294 103 170 220 215 265 339 17 9 35 219 114
318 319 319 315 324 323 307 308 312 307 323 323 290 283 281 277 285 276 289 299 314 278 347 329 339 325 316 132 133 228 153 125 45 307 297 177 159 221 231 250 237 357 37 76 187 64 122
313 316 316 318 317 318 324 323 314 303 312 323 277 335 340 254 281 310 282 263 252 256 288 278 280 287 344 352 38 78 83 83 137 267 27 326 156 215 150 200 186 178 148 155 120 142 124